Terminal Aerodrome Forecast
Issued by NWS Birmingham, AL

Home | Current Version | Previous Version | Text Only | Print | Product List | Glossary On
Versions: 1 2 3 4 5 6 7 8 9 10 11 12 13 14 15 16 17 18 19
000
FTUS44 KBMX 252340
TAFBHM
TAF
KBHM 252340Z 2600/2624 27008KT P6SM FEW021 BKN040 OVC050
     FM260600 23010KT 4SM BR SCT010
      TEMPO 2609/2613 2SM BR OVC007
     FM261400 29012KT P6SM BKN250=

USA.gov is the U.S. government's official web portal to all federal, state and local government web resources and services.